Weather in Novoanninsky

Russia / Volgograd Oblast     50°31′46″N   42°40′00″E
temp.,
°C
wind,
m/s
gust,
m/s
humid.,
%
clouds,
%
prec.,
mm/h
press.,
hPa
HPBL,
m
24 july, sat
sat2400:00+17nnw12580 0.0 100911
03:00+15w22650 0.0 101011
06:00+17wnw24670 0.0 1011117
09:00+24wnw344511 0.0 1011852
12:00+26nnw563768 0.0 10112376
15:00+26nw5537100 0.0 10122250
18:00+22nnw465074 0.0 1013285
21:00+19wnw116452 0.0 101413
25 july, sun
sun2500:00+19e116211 0.0 101612
03:00+18ese226273 0.0 101739
06:00+19se225773 0.0 1018102
09:00+23e224315 0.0 1019905
12:00+27ene4434100 0.0 10192543
15:00+27ene433383 0.0 10191945
18:00+26ne443549 0.0 10191305
21:00+21ne484990 0.0 1021207
26 july, mon
mon2600:00+21ne384899 0.0 1022232
03:00+19ene364974 0.0 1022137
06:00+20ene364967 0.0 1023221
09:00+24ene453874 0.0 1023828
12:00+28ene443197 0.0 10222188
15:00+29ne442790 0.0 10212810
18:00+27ne663570 0.0 10211053
21:00+20ne511547 0.0 1022260
27 july, tue
tue2700:00+18ene495849 0.0 1023196
03:00+19ne3749100 0.0 1023203
06:00+19ne374887 0.0 1023223
09:00+24ene56349 0.0 1023834
12:00+27ene43260 0.0 10221987
15:00+29nne43251 0.0 10212688
18:00+27ne44270 0.0 10202520
21:00+21ene33390 0.0 102128
28 july, wed
wed2800:00+18ne34500 0.0 102157
03:00+17ne22560 0.0 102118
06:00+18ne12540 0.0 102162
09:00+26nne22350 0.0 1020715
12:00+29ne21261 0.0 10192725
15:00+30ne222333 0.0 10173171
18:00+29ene322450 0.0 10162365
21:00+23ene22335 0.0 101615